ZACUBE-1 (TSHEPISOSAT)

Last updated on Wed Aug 19 2026 00:03:14 GMT+0000 (Coordinated Universal Time)

1 39417U 13066B 26230.58989646 .00004912 00000+0 37694-3 0 9995 2 39417 97.8022 193.2225 0042440 43.9687 316.4900 15.01547564690094
UTC large
Height (km)
Speed (km/s)
/
Latitude / Longitude
Inclination (degrees)
Orbital Period (minutes)
Azimuth
Elevation
Range (km)
Doppler Factor

Next 0 passes for location: London (51.5072 / 0.1276)

No passes found over London.
ZACUBE-1 (TSHEPISOSAT)